Regional Weather Roundup
Issued by NWS

Home | Current Version | Previous Version | Graphics & Text | Print | Product List | Glossary On
Versions: 1 2 3 4 5 6 7 8 9 10 11 12 13 14 15 16 17 18 19 20 21 22 23 24 25 26 27 28 29 30 31 32 33 34 35 36 37 38 39 40 41 42 43 44 45 46 47 48 49 50
000
ASUS43 KTOP 272059
RWRKS

WEATHER ROUNDUP FOR KANSAS
NATIONAL WEATHER SERVICE GOODLAND KS
300 PM CST THU NOV 27 2014

NOTE:  "FAIR" INDICATES FEW OR NO CLOUDS BELOW 12,000 FEET WITH NO
SIGNIFICANT WEATHER AND/OR OBSTRUCTIONS TO VISIBILITY.

KSZ001>006-013>018-027>032-041>047-272200-
NORTHWEST KANSAS

CITY           SKY/WX    TMP DP  RH WIND       PRES   REMARKS
GOODLAND       MOSUNNY   64  23  21 S17       30.08F
HAYS           MOSUNNY   50  21  32 S24       30.18F
HILL CITY      SUNNY     54  23  30 S14G21    30.15F
RUSSELL        MOSUNNY   47  20  34 S23       30.20F
$$

KSZ061>065-074>080-084>089-272200-
SOUTHWEST KANSAS

CITY           SKY/WX    TMP DP  RH WIND       PRES   REMARKS
DODGE CITY     SUNNY     53  22  29 S25       30.19F
ELKHART          N/A     64  29  26 SW14        N/A
GARDEN CITY    SUNNY     54  26  34 S21       30.16F
GREAT BEND     SUNNY     50  21  32 S22G29    30.23F
LIBERAL        SUNNY     63  34  34 S17G24    30.19F
$$

KSZ066>073-081>083-090>101-272200-
SOUTHEAST KANSAS

CITY           SKY/WX    TMP DP  RH WIND       PRES   REMARKS
CHANUTE        SUNNY     42  20  41 S9        30.41F
COFFEYVILLE    SUNNY     44  21  40 SE9       30.42F
HUTCHINSON     SUNNY     46  17  31 S21G28    30.30F
MEDICINE LODGE   N/A     46  20  35 S13G22    30.28F
NEWTON         SUNNY     45  14  29 S15       30.33F
PARSONS        SUNNY     44  22  41 MISG      30.43F
WICHITA INTL   MOSUNNY   46  15  28 S21       30.33F
WICHITA JABRA  SUNNY     43  15  32 S16       30.33F
WINFIELD       SUNNY     46  17  31 S14       30.36F
$$

KSZ007>012-019>026-033>040-048>060-102>105-272200-
NORTHEAST KANSAS

CITY           SKY/WX    TMP DP  RH WIND       PRES   REMARKS
CONCORDIA      SUNNY     41  16  36 S17       30.28F
EMPORIA        SUNNY     41  16  36 S13       30.36F
LAWRENCE       SUNNY     38  20  48 SE7       30.41F
MANHATTAN      SUNNY     44  16  32 S12       30.34F
OLATHE IND     SUNNY     37  20  50 S8        30.41F
OLATHE EXE     SUNNY     37  18  46 SW7       30.40F
SALINA         SUNNY     46  15  28 S17G25    30.29F
TOPEKA BILLARD SUNNY     40  20  44 SE8       30.39F
TOPEKA FORBES  SUNNY     41  20  43 SE9       30.38F
$$


USA.gov is the U.S. government's official web portal to all federal, state and local government web resources and services.